OneWeb SL0415

operational
NORAD ID: 51624 Int'l Des: 2022-012 Owner: ONEWEBN Country: UK Constellation: oneweb
LEOCIRCULARPOLARONEWEB_TYPE

About OneWeb SL0415

Description loading...

Live Position

Loading 3D Globe...

Upcoming Passes

Altitude History

Altitude vs Time

uPlot chart will show altitude changes over time

Two-Line Element Set

1 51624U 22012C 25354.25677550 -.00000494 00000-0 -14508-2 0 9990
2 51624 87.8806 71.9393 0001412 100.7936 259.3351 13.10374374185851
Epoch: Dec 20, 2025 • Age: 17 hours

Current Status

Altitude 1228.0 km
Velocity 7.25 km/s
Sub-Earth Point 46.50°N, 169.76°E
Launch Date Feb 10, 2022
Age 3.8 years
Type internet

Technical Details

Classification Payload
Mass 148.00 kg
Dry Mass 140.00 kg
Total Mass 148.00 kg
Length 1.30 m
Diameter 1.00 m
Span 5.00 m
Shape Trapezoid+2 pan
Manufacturer ONEWUS
Bus Type ARROW
Phase Status In Orbit
Owner/State ONEWEBN/UK

Large Constellations

Loading constellations...